| time (UTC) | temp F | wind direction | speed MPH | gust MPH | rain 1hr in | rain 24hr in | rain mn in | humidity % | barometer mb |
| 20260905103006 | 74 | 165 | 6.0 | 0.0 | 0.00 | 0.00 | 0.00 | 56 | 1006.7 |
| 20260905101609 | 74 | 172 | 5.0 | 0.0 | 0.00 | 0.00 | 0.00 | 57 | 1006.7 |
| 20260905100020 | 73 | 159 | 5.0 | 0.0 | 0.00 | 0.00 | 0.00 | 58 | 1006.7 |
| 20260905094538 | 74 | 159 | 4.0 | 0.0 | 0.00 | 0.00 | 0.00 | 57 | 1006.8 |
| 20260905093052 | 74 | 139 | 1.0 | 0.0 | 0.00 | 0.00 | 0.00 | 57 | 1007.1 |
| 20260905091502 | 74 | 142 | 3.0 | 0.0 | 0.00 | 0.00 | 0.00 | 58 | 1006.9 |
| 20260905090014 | 74 | 159 | 4.0 | 0.0 | 0.00 | 0.00 | 0.00 | 60 | 1006.7 |
| 20260905084532 | 73 | 174 | 4.0 | 0.0 | 0.00 | 0.00 | 0.00 | 61 | 1006.7 |
| 20260905083049 | 73 | 156 | 4.0 | 0.0 | 0.00 | 0.00 | 0.00 | 61 | 1006.7 |
| 20260905081611 | 73 | 144 | 3.0 | 0.0 | 0.00 | 0.00 | 0.00 | 62 | 1006.7 |
| 20260905080004 | 73 | 138 | 3.0 | 0.0 | 0.00 | 0.00 | 0.00 | 62 | 1007.0 |
| 20260905074521 | 74 | 148 | 2.0 | 0.0 | 0.00 | 0.00 | 0.00 | 62 | 1007.1 |
| 20260905073051 | 74 | 122 | 2.0 | 0.0 | 0.00 | 0.00 | 0.00 | 62 | 1007.3 |
| 20260905071508 | 74 | 136 | 3.0 | 0.0 | 0.00 | 0.00 | 0.00 | 61 | 1007.6 |
| 20260905070023 | 75 | 119 | 3.0 | 0.0 | 0.00 | 0.00 | 0.00 | 60 | 1007.6 |
| 20260905064534 | 75 | 146 | 3.0 | 0.0 | 0.00 | 0.00 | 0.00 | 60 | 1007.5 |
| 20260905063043 | 76 | 154 | 3.0 | 0.0 | 0.00 | 0.00 | 0.00 | 60 | 1007.9 |
| 20260905061604 | 76 | 138 | 3.0 | 0.0 | 0.00 | 0.00 | 0.00 | 60 | 1007.9 |
| 20260905060014 | 76 | 139 | 3.0 | 0.0 | 0.00 | 0.00 | 0.00 | 60 | 1008.0 |
| 20260905054539 | 76 | 132 | 4.0 | 0.0 | 0.00 | 0.00 | 0.00 | 60 | 1008.0 |
| 20260905053112 | 76 | 149 | 3.0 | 0.0 | 0.00 | 0.00 | 0.00 | 60 | 1008.0 |
| 20260905051522 | 76 | 142 | 2.0 | 0.0 | 0.00 | 0.00 | 0.00 | 59 | 1007.9 |
| 20260905050028 | 76 | 130 | 3.0 | 0.0 | 0.00 | 0.00 | 0.00 | 59 | 1008.0 |
| 20260905044544 | 76 | 119 | 4.0 | 0.0 | 0.00 | 0.00 | 0.00 | 59 | 1008.1 |
| 20260905043100 | 75 | 109 | 4.0 | 0.0 | 0.00 | 0.00 | 0.00 | 59 | 1008.2 |
| 20260905041609 | 75 | 108 | 3.0 | 0.0 | 0.00 | 0.00 | 0.00 | 58 | 1008.2 |
| 20260905040020 | 76 | 126 | 6.0 | 0.0 | 0.00 | 0.00 | 0.00 | 58 | 1008.6 |
| 20260905034523 | 76 | 111 | 5.0 | 0.0 | 0.00 | 0.00 | 0.00 | 58 | 1008.4 |
| 20260905033043 | 76 | 109 | 3.0 | 0.0 | 0.00 | 0.00 | 0.00 | 57 | 1008.6 |
| 20260905031547 | 76 | 104 | 3.0 | 0.0 | 0.00 | 0.00 | 0.00 | 56 | 1008.5 |
| 20260905030050 | 77 | 118 | 3.0 | 0.0 | 0.00 | 0.00 | 0.00 | 57 | 1008.8 |
| 20260905024510 | 77 | 120 | 2.0 | 0.0 | 0.00 | 0.00 | 0.00 | 57 | 1008.6 |
| 20260905023031 | 77 | 120 | 3.0 | 0.0 | 0.00 | 0.00 | 0.00 | 56 | 1008.5 |
| 20260905021539 | 78 | 128 | 1.0 | 0.0 | 0.00 | 0.00 | 0.00 | 56 | 1008.4 |
| 20260905020040 | 79 | 130 | 1.0 | 0.0 | 0.00 | 0.00 | 0.00 | 55 | 1008.7 |
| 20260905014542 | 80 | 132 | 1.0 | 0.0 | 0.00 | 0.00 | 0.00 | 56 | 1008.6 |
| 20260905013042 | 81 | 148 | 2.0 | 0.0 | 0.00 | 0.00 | 0.00 | 55 | 1008.4 |
| 20260905011505 | 82 | 149 | 3.0 | 0.0 | 0.00 | 0.00 | 0.00 | 55 | 1008.4 |
| 20260905010024 | 84 | 147 | 3.0 | 0.0 | 0.00 | 0.00 | 0.00 | 54 | 1008.6 |
| 20260905004541 | 85 | 123 | 3.0 | 0.0 | 0.00 | 0.00 | 0.00 | 53 | 1008.2 |
| 20260905003052 | 86 | 111 | 4.0 | 0.0 | 0.00 | 0.00 | 0.00 | 52 | 1008.2 |
| 20260905001614 | 87 | 131 | 4.0 | 0.0 | 0.00 | 0.00 | 0.00 | 52 | 1008.0 |
| 20260905000007 | 88 | 105 | 4.0 | 0.0 | 0.00 | 0.00 | 0.00 | 51 | 1008.0 |
| 20260904234533 | 88 | 132 | 9.0 | 0.0 | 0.00 | 0.00 | 0.00 | 50 | 1007.9 |
| 20260904233052 | 89 | 118 | 7.0 | 0.0 | 0.00 | 0.00 | 0.00 | 50 | 1007.9 |
| 20260904231525 | 89 | 115 | 8.0 | 0.0 | 0.00 | 0.00 | 0.00 | 49 | 1008.0 |
| 20260904230100 | 89 | 122 | 9.0 | 0.0 | 0.00 | 0.00 | 0.00 | 48 | 1007.9 |
| 20260904224601 | 90 | 91 | 8.0 | 0.0 | 0.00 | 0.00 | 0.00 | 46 | 1007.9 |
| 20260904223008 | 90 | 101 | 10.0 | 0.0 | 0.00 | 0.00 | 0.00 | 46 | 1007.9 |
| 20260904221511 | 90 | 103 | 9.0 | 0.0 | 0.00 | 0.00 | 0.00 | 46 | 1008.0 |
| 20260904220022 | 90 | 143 | 7.0 | 0.0 | 0.00 | 0.00 | 0.00 | 47 | 1007.8 |
| 20260904214535 | 90 | 97 | 5.0 | 0.0 | 0.00 | 0.00 | 0.00 | 48 | 1007.7 |
| 20260904213037 | 90 | 90 | 5.0 | 0.0 | 0.00 | 0.00 | 0.00 | 47 | 1007.9 |
| 20260904211604 | 90 | 145 | 8.0 | 0.0 | 0.00 | 0.00 | 0.00 | 45 | 1008.1 |
| 20260904210025 | 90 | 101 | 9.0 | 0.0 | 0.00 | 0.00 | 0.00 | 47 | 1007.9 |
| 20260904204521 | 90 | 111 | 9.0 | 0.0 | 0.00 | 0.00 | 0.00 | 45 | 1008.2 |
| 20260904203043 | 90 | 113 | 7.0 | 0.0 | 0.00 | 0.00 | 0.00 | 43 | 1008.3 |
| 20260904201609 | 91 | 138 | 10.0 | 0.0 | 0.00 | 0.00 | 0.00 | 43 | 1008.2 |
| 20260904200039 | 92 | 112 | 11.0 | 0.0 | 0.00 | 0.00 | 0.00 | 42 | 1007.8 |
| 20260904194532 | 93 | 90 | 10.0 | 0.0 | 0.00 | 0.00 | 0.00 | 43 | 1008.0 |
| 20260904193026 | 93 | 111 | 8.0 | 0.0 | 0.00 | 0.00 | 0.00 | 42 | 1008.2 |
| 20260904191554 | 93 | 97 | 9.0 | 0.0 | 0.00 | 0.00 | 0.00 | 40 | 1008.1 |
| 20260904190056 | 93 | 132 | 7.0 | 0.0 | 0.00 | 0.00 | 0.00 | 42 | 1007.9 |
| 20260904184503 | 92 | 92 | 8.0 | 0.0 | 0.00 | 0.00 | 0.00 | 43 | 1008.0 |
| 20260904183022 | 92 | 85 | 10.0 | 0.0 | 0.00 | 0.00 | 0.00 | 40 | 1008.0 |
| 20260904181547 | 92 | 102 | 8.0 | 0.0 | 0.00 | 0.00 | 0.00 | 41 | 1008.0 |
| 20260904180117 | 92 | 134 | 6.0 | 0.0 | 0.00 | 0.00 | 0.00 | 41 | 1008.1 |
| 20260904174508 | 91 | 117 | 8.0 | 0.0 | 0.00 | 0.00 | 0.00 | 45 | 1008.1 |
| 20260904173033 | 90 | 74 | 7.0 | 0.0 | 0.00 | 0.00 | 0.00 | 48 | 1007.8 |
| 20260904171602 | 89 | 85 | 9.0 | 0.0 | 0.00 | 0.00 | 0.00 | 47 | 1008.2 |
| 20260904170051 | 89 | 107 | 6.0 | 0.0 | 0.00 | 0.00 | 0.00 | 49 | 1008.3 |
| 20260904164553 | 88 | 74 | 8.0 | 0.0 | 0.00 | 0.00 | 0.00 | 45 | 1008.1 |
| 20260904163107 | 87 | 88 | 6.0 | 0.0 | 0.00 | 0.00 | 0.00 | 48 | 1008.2 |
| 20260904161611 | 86 | 81 | 4.0 | 0.0 | 0.00 | 0.00 | 0.00 | 54 | 1008.5 |
| 20260904160115 | 85 | 117 | 3.0 | 0.0 | 0.00 | 0.00 | 0.00 | 56 | 1008.7 |
| 20260904154606 | 83 | 72 | 4.0 | 0.0 | 0.00 | 0.00 | 0.00 | 57 | 1008.6 |
| 20260904153011 | 82 | 91 | 3.0 | 0.0 | 0.00 | 0.00 | 0.00 | 57 | 1008.4 |
| 20260904151521 | 81 | 119 | 3.0 | 0.0 | 0.00 | 0.00 | 0.00 | 60 | 1008.6 |
| 20260904150038 | 80 | 101 | 1.0 | 0.0 | 0.00 | 0.00 | 0.00 | 61 | 1008.5 |
| 20260904144543 | 78 | 119 | 2.0 | 0.0 | 0.00 | 0.00 | 0.00 | 63 | 1008.7 |
| 20260904143054 | 75 | 136 | 0.0 | 0.0 | 0.00 | 0.00 | 0.00 | 67 | 1008.7 |
| 20260904141503 | 72 | 108 | 1.0 | 0.0 | 0.00 | 0.00 | 0.00 | 70 | 1008.7 |
| 20260904140004 | 71 | 110 | 0.0 | 0.0 | 0.00 | 0.00 | 0.00 | 72 | 1008.8 |
| 20260904134511 | 68 | 110 | 0.0 | 0.0 | 0.00 | 0.00 | 0.00 | 74 | 1008.9 |
| 20260904133009 | 66 | 61 | 0.0 | 0.0 | 0.00 | 0.00 | 0.00 | 75 | 1009.0 |
| 20260904131535 | 64 | 61 | 0.0 | 0.0 | 0.00 | 0.00 | 0.00 | 76 | 1008.8 |
| 20260904130047 | 61 | 65 | 0.0 | 0.0 | 0.00 | 0.00 | 0.00 | 75 | 1008.5 |
| 20260904124549 | 60 | 62 | 0.0 | 0.0 | 0.00 | 0.00 | 0.00 | 75 | 1008.6 |
| 20260904123104 | 60 | 65 | 0.0 | 0.0 | 0.00 | 0.00 | 0.00 | 74 | 1008.4 |
| 20260904121609 | 60 | 63 | 0.0 | 0.0 | 0.00 | 0.00 | 0.00 | 73 | 1008.3 |
| 20260904120005 | 61 | 63 | 0.0 | 0.0 | 0.00 | 0.00 | 0.00 | 74 | 1007.8 |
| 20260904114501 | 60 | 63 | 1.0 | 0.0 | 0.00 | 0.00 | 0.00 | 74 | 1007.8 |
| 20260904113029 | 60 | 63 | 0.0 | 0.0 | 0.00 | 0.00 | 0.00 | 73 | 1007.8 |
| 20260904111539 | 61 | 63 | 1.0 | 0.0 | 0.00 | 0.00 | 0.00 | 74 | 1007.7 |
| 20260904110053 | 61 | 97 | 0.0 | 0.0 | 0.00 | 0.00 | 0.00 | 74 | 1007.0 |
| 20260904104612 | 61 | 97 | 0.0 | 0.0 | 0.00 | 0.00 | 0.00 | 73 | 1007.0 |